When you browse on this site, cookies collect data to enhance your experience and personalize the content and advertising you see.
Visit our Privacy Policy to learn more. By continuing to use the site, you agree to this use of cookies and data.
  • In Hungary
  • List of Countries
  • For 7 days
  • Water Temperature
  • Satellite Maps
  • Weather Map
  • News
  • Weather Widgets
  • user-avatar
    Login

    Hourly Weather Fontenay-le-Comte

    Today, 25 March, Monday

    Time Temperature Precipitation Wind Pressure Humidity
    00:00 +5°C° 0 mm 4 mps 768 mmHg 88%
    01:00 +4°C° 0 mm 4 mps 768 mmHg 86%
    02:00 +4°C° 0 mm 4 mps 768 mmHg 84%
    03:00 +3°C° 0 mm 4 mps 768 mmHg 82%
    04:00 +1°C° 0 mm 4 mps 768 mmHg 85%
    05:00 +2°C° 0 mm 3 mps 768 mmHg 89%
    06:00 +1°C° 0 mm 3 mps 768 mmHg 92%
    07:00 +4°C° 0 mm 4 mps 768 mmHg 87%
    08:00 +6°C° 0 mm 4 mps 768 mmHg 83%
    09:00 +8°C° 0 mm 5 mps 769 mmHg 78%
    10:00 +9°C° 0 mm 5 mps 768 mmHg 74%
    11:00 +10°C° 0 mm 5 mps 768 mmHg 70%
    12:00 +11°C° 0 mm 6 mps 768 mmHg 66%
    13:00 +11°C° 0 mm 6 mps 768 mmHg 67%
    14:00 +11°C° 0 mm 6 mps 768 mmHg 68%
    15:00 +10°C° 0 mm 6 mps 768 mmHg 69%
    16:00 +9°C° 0 mm 5 mps 768 mmHg 72%
    17:00 +8°C° 0 mm 4 mps 768 mmHg 75%
    18:00 +8°C° 0 mm 3 mps 768 mmHg 78%
    19:00 +6°C° 0 mm 4 mps 769 mmHg 77%
    20:00 +6°C° 0 mm 4 mps 769 mmHg 77%
    21:00 +5°C° 0 mm 4 mps 770 mmHg 76%
    22:00 +4°C° 0 mm 4 mps 770 mmHg 77%
    23:00 +3°C° 0 mm 5 mps 771 mmHg 78%

    Tomorrow, 26 March, Tuesday

    Time Temperature Precipitation Wind Pressure Humidity
    00:00 +3°C° 0 mm 5 mps 771 mmHg 78%
    01:00 +2°C° 0 mm 5 mps 771 mmHg 80%
    02:00 +3°C° 0 mm 4 mps 771 mmHg 83%
    03:00 +1°C° 0 mm 4 mps 771 mmHg 85%
    04:00 +1°C° 0 mm 4 mps 771 mmHg 87%
    05:00 0°C° 0 mm 4 mps 771 mmHg 89%
    06:00 0°C° 0 mm 4 mps 771 mmHg 91%
    07:00 +3°C° 0 mm 4 mps 771 mmHg 85%
    08:00 +5°C° 0 mm 5 mps 771 mmHg 79%
    09:00 +7°C° 0 mm 5 mps 772 mmHg 73%
    10:00 +8°C° 0 mm 5 mps 772 mmHg 70%
    11:00 +9°C° 0 mm 5 mps 771 mmHg 67%
    12:00 +10°C° 0 mm 5 mps 771 mmHg 63%
    13:00 +12°C° 0 mm 5 mps 771 mmHg 62%
    14:00 +12°C° 0 mm 5 mps 770 mmHg 61%
    15:00 +13°C° 0 mm 5 mps 770 mmHg 60%
    16:00 +10°C° 0 mm 5 mps 770 mmHg 65%
    17:00 +10°C° 0 mm 4 mps 769 mmHg 70%
    18:00 +8°C° 0 mm 4 mps 769 mmHg 76%
    19:00 +7°C° 0 mm 4 mps 770 mmHg 77%
    20:00 +6°C° 0 mm 4 mps 770 mmHg 78%
    21:00 +5°C° 0 mm 4 mps 771 mmHg 80%
    22:00 +5°C° 0 mm 4 mps 771 mmHg 82%
    23:00 +4°C° 0 mm 4 mps 771 mmHg 84%

    Day after tomorrow, 27 March, Wednesday

    Time Temperature Precipitation Wind Pressure Humidity
    00:00 +3°C° 0 mm 3 mps 771 mmHg 87%
    01:00 +3°C° 0 mm 3 mps 771 mmHg 89%
    02:00 +3°C° 0 mm 3 mps 771 mmHg 90%
    03:00 +2°C° 0 mm 3 mps 770 mmHg 92%
    04:00 +2°C° 0 mm 3 mps 771 mmHg 92%
    05:00 +2°C° 0 mm 3 mps 771 mmHg 93%
    06:00 +2°C° 0 mm 3 mps 771 mmHg 94%
    07:00 +4°C° 0 mm 4 mps 771 mmHg 87%
    08:00 +6°C° 0 mm 5 mps 771 mmHg 80%
    09:00 +8°C° 0 mm 5 mps 771 mmHg 73%
    10:00 +9°C° 0 mm 5 mps 771 mmHg 69%
    11:00 +10°C° 0 mm 5 mps 771 mmHg 66%
    12:00 +13°C° 0 mm 6 mps 771 mmHg 62%
    13:00 +13°C° 0 mm 6 mps 770 mmHg 62%
    14:00 +13°C° 0 mm 6 mps 770 mmHg 62%
    15:00 +14°C° 0 mm 6 mps 770 mmHg 61%
    16:00 +13°C° 0 mm 5 mps 770 mmHg 67%
    17:00 +12°C° 0 mm 4 mps 770 mmHg 72%
    18:00 +11°C° 0 mm 4 mps 770 mmHg 78%
    19:00 +8°C° 0 mm 4 mps 770 mmHg 80%
    20:00 +7°C° 0 mm 4 mps 770 mmHg 81%
    21:00 +6°C° 0 mm 4 mps 771 mmHg 83%
    22:00 +6°C° 0 mm 4 mps 771 mmHg 84%
    23:00 +5°C° 0 mm 4 mps 771 mmHg 85%

    28 March, Thursday

    Time Temperature Precipitation Wind Pressure Humidity
    00:00 +5°C° 0 mm 3 mps 771 mmHg 86%
    01:00 +4°C° 0 mm 3 mps 771 mmHg 88%
    02:00 +4°C° 0 mm 3 mps 771 mmHg 90%
    03:00 +4°C° 0 mm 4 mps 771 mmHg 92%
    04:00 +3°C° 0 mm 4 mps 771 mmHg 92%
    05:00 +3°C° 0 mm 4 mps 771 mmHg 93%
    06:00 +3°C° 0 mm 4 mps 771 mmHg 94%
    07:00 +5°C° 0 mm 4 mps 771 mmHg 87%
    08:00 +7°C° 0 mm 5 mps 771 mmHg 80%
    09:00 +9°C° 0 mm 5 mps 771 mmHg 73%
    10:00 +10°C° 0 mm 6 mps 771 mmHg 70%
    11:00 +13°C° 0 mm 6 mps 770 mmHg 66%
    12:00 +14°C° 0 mm 6 mps 770 mmHg 63%
    13:00 +14°C° 0 mm 6 mps 770 mmHg 63%
    14:00 +15°C° 0 mm 6 mps 769 mmHg 63%
    15:00 +15°C° 0 mm 6 mps 769 mmHg 63%
    16:00 +14°C° 0 mm 6 mps 768 mmHg 68%
    17:00 +13°C° 0 mm 5 mps 768 mmHg 74%
    18:00 +12°C° 0 mm 4 mps 768 mmHg 79%
    19:00 +11°C° 0 mm 4 mps 769 mmHg 81%
    20:00 +10°C° 0 mm 4 mps 769 mmHg 84%
    21:00 +8°C° 0 mm 4 mps 769 mmHg 86%
    22:00 +8°C° 0 mm 4 mps 769 mmHg 88%
    23:00 +7°C° 0 mm 4 mps 769 mmHg 89%

    29 March, Friday

    Time Temperature Precipitation Wind Pressure Humidity
    00:00 +7°C° 0 mm 4 mps 769 mmHg 91%
    01:00 +7°C° 0 mm 4 mps 768 mmHg 92%
    02:00 +6°C° 0 mm 4 mps 768 mmHg 93%
    03:00 +6°C° 0 mm 4 mps 768 mmHg 94%
    04:00 +5°C° 0 mm 4 mps 768 mmHg 95%
    05:00 +5°C° 0 mm 4 mps 768 mmHg 95%
    06:00 +5°C° 0 mm 4 mps 768 mmHg 95%
    07:00 +7°C° 0 mm 4 mps 768 mmHg 89%
    08:00 +8°C° 0 mm 4 mps 768 mmHg 84%
    09:00 +11°C° 0 mm 4 mps 768 mmHg 78%
    10:00 +13°C° 0 mm 4 mps 768 mmHg 73%
    11:00 +14°C° 0 mm 4 mps 768 mmHg 68%
    12:00 +17°C° 0 mm 4 mps 768 mmHg 63%
    13:00 +17°C° 0 mm 3 mps 767 mmHg 62%
    14:00 +18°C° 0 mm 3 mps 767 mmHg 61%
    15:00 +18°C° 0 mm 2 mps 766 mmHg 59%
    16:00 +17°C° 0 mm 2 mps 766 mmHg 64%
    17:00 +16°C° 0 mm 2 mps 766 mmHg 69%
    18:00 +14°C° 0 mm 2 mps 766 mmHg 74%
    19:00 +13°C° 0 mm 2 mps 766 mmHg 77%
    20:00 +12°C° 0 mm 2 mps 767 mmHg 80%
    21:00 +10°C° 0 mm 3 mps 767 mmHg 82%
    22:00 +9°C° 0 mm 3 mps 767 mmHg 83%
    23:00 +9°C° 0 mm 3 mps 767 mmHg 84%

    30 March, Saturday

    Time Temperature Precipitation Wind Pressure Humidity
    00:00 +9°C° 0 mm 3 mps 767 mmHg 85%
    01:00 +8°C° 0 mm 3 mps 767 mmHg 86%
    02:00 +8°C° 0 mm 3 mps 766 mmHg 88%
    03:00 +7°C° 0 mm 3 mps 766 mmHg 89%
    04:00 +7°C° 0 mm 3 mps 766 mmHg 88%
    05:00 +6°C° 0 mm 2 mps 766 mmHg 86%
    06:00 +6°C° 0 mm 2 mps 766 mmHg 85%
    07:00 +8°C° 0 mm 2 mps 766 mmHg 78%
    08:00 +10°C° 0 mm 2 mps 766 mmHg 72%
    09:00 +13°C° 0 mm 2 mps 767 mmHg 66%
    10:00 +14°C° 0 mm 2 mps 766 mmHg 63%
    11:00 +16°C° 0 mm 2 mps 766 mmHg 60%
    12:00 +17°C° 0 mm 2 mps 766 mmHg 57%
    13:00 +18°C° 0 mm 2 mps 766 mmHg 55%
    14:00 +19°C° 0 mm 1 mps 765 mmHg 54%
    15:00 +19°C° 0 mm 1 mps 765 mmHg 53%
    16:00 +18°C° 0 mm 1 mps 765 mmHg 58%
    17:00 +16°C° 0 mm 1 mps 765 mmHg 62%
    18:00 +15°C° 0 mm 1 mps 765 mmHg 67%
    19:00 +13°C° 0 mm 1 mps 765 mmHg 69%
    20:00 +12°C° 0 mm 1 mps 765 mmHg 70%
    21:00 +10°C° 0 mm 2 mps 766 mmHg 72%
    22:00 +9°C° 0 mm 2 mps 765 mmHg 72%
    23:00 +9°C° 0 mm 2 mps 765 mmHg 71%
    Show more